New York, NY

5:52 AM EDT on October 24, 2017 (GMT -0400)
La Guardia

Weather History for KLGA - February, 2012

Change the Weather History Date:

Wednesday, February 15, 2012

  Actual Average Record
Temperature  
Mean Temperature 42 °F 35 °F  
Max Temperature 45 °F 42 °F 74 °F (1949)
Min Temperature 39 °F 29 °F -7 °F (1943)
Degree Days  
Heating Degree Days 23 30  
Month to date heating degree days 370 461  
Since 1 July heating degree days 2499 3060  
Cooling Degree Days 0 0  
Month to date cooling degree days 0 0  
Year to date cooling degree days 0 0  
Moisture  
Dew Point 35 °F    
Average Humidity 72    
Maximum Humidity 85    
Minimum Humidity 58    
Precipitation  
Precipitation 0.01 in 0.10 in 1.57 in (1984)
Month to date precipitation 0.14 1.42  
Year to date precipitation 2.65 4.59  
Snow  
Snow 0.00 in 0.30 in 3.40 in (1958)
Month to date snowfall T 4.9  
Since 1 July snowfall 5.1 17.8  
Snow Depth 0.00 in    
Sea Level Pressure  
Sea Level Pressure 30.17 in    
Wind  
Wind Speed 7 mph (North)    
Max Wind Speed 16 mph    
Max Gust Speed 20 mph    
Visibility 8 miles    
Events Rain    
T = Trace of Precipitation, MM = Missing Value Source: NWS Daily Summary

Daily Weather History Graph

Daily Weather History Graph

Search for Another Location

Airport or City:

Trip Planner

Search our weather history database for the weather conditions in past years. The results will help you decide how hot, cold, wet, or windy it might be!

Date:

Astronomy

Feb. 15, 2012 Rise Set
Actual Time 6:50 AM EST 5:29 PM EST
Civil Twilight 6:22 AM EST 5:57 PM EST
Nautical Twilight 5:50 AM EST 6:29 PM EST
Astronomical Twilight 5:18 AM EST 7:01 PM EST
Moon 1:41 AM EST (2/15) 11:21 AM EST (2/15)
Length of Visible Light 11h 35m
Length of Day
10h 39m
Last Quarter, 39% of the Moon is Illuminated
Feb 15
Last Quarter
Feb 21
New
Feb 29
First Quarter
Mar 8
Full
Mar 14
Last Quarter

Hourly Weather History & Observations

Time (EST) Temp. Windchill Dew Point Humidity Pressure Visibility Wind Dir Wind Speed Gust Speed Precip Events Conditions
12:51 AM 41.0 °F 38.0 °F 35.1 °F 79% 30.07 in 10.0 mi South 4.6 mph - 0.00 in Rain Light Rain
1:51 AM 41.0 °F 39.0 °F 36.0 °F 82% 30.07 in 10.0 mi ENE 3.5 mph - 0.00 in   Overcast
2:51 AM 39.9 °F 36.7 °F 36.0 °F 86% 30.07 in 9.0 mi East 4.6 mph - 0.00 in Rain Light Rain
3:51 AM 39.9 °F 36.7 °F 36.0 °F 86% 30.08 in 7.0 mi NE 4.6 mph - 0.00 in   Overcast
4:51 AM 39.9 °F 35.8 °F 36.0 °F 86% 30.09 in 10.0 mi NE 5.8 mph - 0.00 in Rain Light Rain
5:51 AM 39.9 °F 35.1 °F 36.0 °F 86% 30.10 in 9.0 mi ENE 6.9 mph - 0.00 in   Overcast
6:51 AM 39.0 °F 33.4 °F 36.0 °F 89% 30.11 in 5.0 mi NE 8.1 mph - 0.00 in   Overcast
7:26 AM 39.2 °F 33.6 °F 37.4 °F 93% 30.13 in 6.0 mi NE 8.1 mph - N/A   Overcast
7:51 AM 39.9 °F 35.1 °F 36.0 °F 86% 30.14 in 5.0 mi NE 6.9 mph - 0.00 in Rain Light Rain
8:51 AM 39.9 °F 35.1 °F 36.0 °F 86% 30.15 in 5.0 mi ENE 6.9 mph - 0.00 in   Overcast
9:51 AM 41.0 °F 39.0 °F 36.0 °F 82% 30.17 in 8.0 mi NE 3.5 mph - 0.00 in Rain Light Rain
10:42 AM 42.8 °F - 37.4 °F 81% 30.18 in 7.0 mi Calm Calm - 0.01 in Rain Light Rain
10:51 AM 42.1 °F - 37.0 °F 82% 30.18 in 7.0 mi Calm Calm - 0.01 in   Overcast
11:27 AM 42.8 °F - 37.4 °F 81% 30.19 in 7.0 mi Calm Calm - 0.00 in Rain Light Rain
11:51 AM 42.8 °F 38.0 °F 37.4 °F 81% 30.19 in 7.0 mi NW 8.1 mph - N/A Rain Light Rain
12:51 PM 43.0 °F 38.8 °F 36.0 °F 76% 30.18 in 8.0 mi WNW 6.9 mph - 0.00 in   Overcast
1:51 PM 44.1 °F 39.0 °F 35.1 °F 71% 30.17 in 10.0 mi NW 9.2 mph - N/A   Overcast
2:51 PM 44.1 °F 37.4 °F 35.1 °F 71% 30.18 in 10.0 mi NW 13.8 mph - N/A   Overcast
3:51 PM 45.0 °F 41.2 °F 35.1 °F 68% 30.18 in 10.0 mi NW 6.9 mph - N/A   Overcast
4:51 PM 45.0 °F 41.2 °F 34.0 °F 65% 30.20 in 10.0 mi NW 6.9 mph - N/A   Mostly Cloudy
5:51 PM 45.0 °F 41.2 °F 33.1 °F 63% 30.22 in 10.0 mi NW 6.9 mph - N/A   Scattered Clouds
6:51 PM 45.0 °F 39.7 °F 33.1 °F 63% 30.25 in 10.0 mi NW 10.4 mph - N/A   Overcast
7:51 PM 44.1 °F 38.1 °F 30.9 °F 60% 30.26 in 10.0 mi NW 11.5 mph - N/A   Overcast
8:51 PM 44.1 °F 38.1 °F 30.9 °F 60% 30.27 in 10.0 mi NW 11.5 mph - N/A   Scattered Clouds
9:51 PM 42.1 °F 36.6 °F 30.9 °F 65% 30.27 in 10.0 mi NW 9.2 mph - N/A   Partly Cloudy
10:51 PM 42.1 °F 38.4 °F 30.0 °F 62% 30.28 in 10.0 mi NW 5.8 mph - N/A   Partly Cloudy
11:51 PM 41.0 °F 36.4 °F 28.9 °F 62% 30.27 in 10.0 mi NNW 6.9 mph - N/A   Clear